This is the latest recevied weather packets stored in our database for station/object DK6MR. If no packets are shown the sender has not sent any weather packets the latest 10 day(s).
| Time | Temp. | Humidity | Pressure | Rain* | Wind** | Luminosity | Snow |
|---|---|---|---|---|---|---|---|
| 1777490512 | 14.44° C | 41% | 1023.7 hPa | 0 mm | - | - | - |
| 1777489611 | 15.56° C | 35% | 1023 hPa | 0 mm | - | - | - |
| 1777488710 | 15.56° C | 36% | 1023 hPa | 0 mm | - | - | - |
| 1777487809 | 16.11° C | 33% | 1023 hPa | 0 mm | - | - | - |
| 1777486908 | 16.67° C | 32% | 1022.7 hPa | 0 mm | - | - | - |
| 1777486007 | 17.22° C | 31% | 1022.3 hPa | 0 mm | - | - | - |
| 1777485106 | 17.78° C | 31% | 1022.3 hPa | 0 mm | - | - | - |
| 1777484205 | 18.33° C | 31% | 1022.3 hPa | 0 mm | - | - | - |
| 1777483304 | 18.33° C | 30% | 1022.3 hPa | 0 mm | - | - | - |
| 1777482404 | 18.33° C | 30% | 1022 hPa | 0 mm | - | - | - |
| 1777481503 | 18.89° C | 28% | 1022.3 hPa | 0 mm | - | - | - |
| 1777480602 | 18.89° C | 28% | 1022 hPa | 0 mm | - | - | - |
| 1777479700 | 19.44° C | 28% | 1022.3 hPa | 0 mm | - | - | - |
| 1777478799 | 19.44° C | 27% | 1022.3 hPa | 0 mm | - | - | - |
| 1777477898 | 19.44° C | 26% | 1022 hPa | 0 mm | - | - | - |
| 1777476997 | 20° C | 26% | 1022 hPa | 0 mm | - | - | - |
| 1777476096 | 20.56° C | 27% | 1022 hPa | 0 mm | - | - | - |
| 1777475195 | 21.11° C | 27% | 1022 hPa | 0 mm | - | - | - |
| 1777474294 | 20.56° C | 26% | 1022 hPa | 0 mm | - | - | - |
| 1777473394 | 20.56° C | 26% | 1022.3 hPa | 0 mm | - | - | - |
| 1777472493 | 20.56° C | 28% | 1022.3 hPa | 0 mm | - | - | - |
| 1777471592 | 20.56° C | 27% | 1022 hPa | 0 mm | - | - | - |
| 1777470691 | 20.56° C | 27% | 1022.3 hPa | 0 mm | - | - | - |
| 1777469790 | 20.56° C | 28% | 1022.7 hPa | 0 mm | - | - | - |
| 1777468889 | 20° C | 28% | 1022.3 hPa | 0 mm | - | - | - |
* Rain latest hour (hover to see other rain measurements)
** Current wind speed in m/s (hover to see current wind gust speed)